{"data":{"norad_id":48234,"intl_designator":"2021-031AA","name":"ONEWEB-0199","alt_names":[],"object_type":"PAYLOAD","status":"ACTIVE","operator":null,"country":"UK","launch_date":"2021-04-25","launch_site_code":"VOSTO","launch_vehicle":null,"mission":null,"orbit_class":"UNKNOWN","rcs_meters":null,"size_class":null,"mass_kg":null,"dimensions":null,"purposes":["comms"],"wikipedia_slug":null,"has_3d_model":false,"image_url":null,"decayed_at":null,"tle_current":{"epoch":"2026-09-19T19:10:37.474176Z","epoch_age_seconds":82607,"freshness":"FRESH","line1":"1 48234U 21031AA  26262.79904484  .00000060  00000+0  12757-3 0  9991","line2":"2 48234  87.8905 270.8303 0002144  87.4207 272.7169 13.14502777260696","mean_motion":13.14502777,"eccentricity":0.0002144,"inclination_deg":87.8905,"raan_deg":270.8303,"arg_perigee_deg":87.4207,"mean_anomaly_deg":272.7169,"bstar":0.00012757,"rev_number":26069,"period_min":109.54712498108,"perigee_km":1204.1644490647,"apogee_km":1207.4164371523,"semimajor_km":7583.9274431085,"source":"CELESTRAK","updated_at":"2026-09-20T09:00:44.597336Z"}}}